Location: Corralito
(10.2667°N, 66.9500°W)
Time: 18:41:10
(UTC+00:00)

Cosmos 2173 Rocket - Pass Details

Date: 23 March 2023
Orbit: 943 x 1001 km, 83.0° (Epoch: 08 June)

Event Time Altitude Azimuth Distance (km) Brightness Sun altitude
Rises 23:35:25 0° 6° (N) 3,713 7.0 -14.8°
Reaches altitude 10° 23:38:03 10° 12° (NNE) 2,761 6.3 -15.4°
Maximum altitude 23:44:09 49° 86° (E) 1,253 4.2 -16.9°
Drops below altitude 10° 23:50:11 10° 159° (SSE) 2,736 6.1 -18.4°
Sets 23:52:46 0° 165° (SSE) 3,677 6.8 -19.0°
